When you browse on this site, cookies collect data to enhance your experience and personalize the content and advertising you see.
Visit our Privacy Policy to learn more. By continuing to use the site, you agree to this use of cookies and data.
  • Em Portugal
  • Lista de países
  • Para 7 dias
  • Temperatura da água
  • Mapas de satélite
  • Mapa do tempo
  • Widgets de tempo
  • user-avatar
    Iniciar Sessão

    Previsão horária em Quipungo

    Hoje, 15 Dezembro, Sábado

    Tempo Temperatura Precipitação Vento Pressão Humidade
    00:00 +21°C° 0 mm 2 m/s 654 mmHg 56%
    01:00 +20°C° 0 mm 2 m/s 653 mmHg 66%
    02:00 +20°C° 0 mm 1 m/s 653 mmHg 68%
    03:00 +20°C° 0 mm 1 m/s 653 mmHg 70%
    04:00 +19°C° 0 mm 1 m/s 653 mmHg 73%
    05:00 +21°C° 0 mm 1 m/s 654 mmHg 65%
    06:00 +23°C° 0 mm 1 m/s 654 mmHg 58%
    07:00 +24°C° 0 mm 1 m/s 655 mmHg 51%
    08:00 +28°C° 0 mm 1 m/s 656 mmHg 41%
    09:00 +32°C° 0 mm 1 m/s 657 mmHg 32%
    10:00 +36°C° 0 mm 1 m/s 658 mmHg 22%
    11:00 +38°C° 0 mm 2 m/s 657 mmHg 20%
    12:00 +38°C° 0 mm 2 m/s 656 mmHg 17%
    13:00 +39°C° 0 mm 3 m/s 656 mmHg 15%
    14:00 +39°C° 0 mm 3 m/s 655 mmHg 16%
    15:00 +38°C° 0 mm 2 m/s 655 mmHg 17%
    16:00 +37°C° 0 mm 2 m/s 654 mmHg 18%
    17:00 +35°C° 0 mm 2 m/s 654 mmHg 23%
    18:00 +31°C° 0 mm 3 m/s 654 mmHg 29%
    19:00 +29°C° 0 mm 3 m/s 654 mmHg 34%
    20:00 +27°C° 0 mm 3 m/s 654 mmHg 42%
    21:00 +26°C° 0 mm 3 m/s 654 mmHg 49%
    22:00 +24°C° 0 mm 3 m/s 654 mmHg 57%
    23:00 +22°C° 0 mm 3 m/s 654 mmHg 62%

    Amanhã, 16 Dezembro, Domingo

    Tempo Temperatura Precipitação Vento Pressão Humidade
    00:00 +21°C° 0 mm 2 m/s 654 mmHg 67%
    01:00 +20°C° 0 mm 2 m/s 654 mmHg 71%
    02:00 +20°C° 0 mm 2 m/s 653 mmHg 73%
    03:00 +19°C° 0 mm 2 m/s 653 mmHg 75%
    04:00 +18°C° 0 mm 2 m/s 653 mmHg 77%
    05:00 +19°C° 0 mm 2 m/s 654 mmHg 72%
    06:00 +20°C° 0 mm 2 m/s 654 mmHg 67%
    07:00 +21°C° 0 mm 2 m/s 655 mmHg 62%
    08:00 +25°C° 0 mm 2 m/s 655 mmHg 52%
    09:00 +28°C° 0 mm 2 m/s 656 mmHg 41%
    10:00 +31°C° 0 mm 2 m/s 657 mmHg 30%
    11:00 +34°C° 0 mm 2 m/s 656 mmHg 27%
    12:00 +36°C° 0 mm 2 m/s 656 mmHg 23%
    13:00 +38°C° 0 mm 2 m/s 656 mmHg 20%
    14:00 +37°C° 0 mm 2 m/s 655 mmHg 21%
    15:00 +36°C° 0 mm 2 m/s 655 mmHg 22%
    16:00 +35°C° 0 mm 2 m/s 654 mmHg 23%
    17:00 +33°C° 0 mm 3 m/s 654 mmHg 28%
    18:00 +30°C° 0 mm 4 m/s 654 mmHg 34%
    19:00 +28°C° 0 mm 4 m/s 654 mmHg 40%
    20:00 +26°C° 0 mm 4 m/s 654 mmHg 48%
    21:00 +24°C° 0 mm 3 m/s 655 mmHg 57%
    22:00 +22°C° 0 mm 3 m/s 655 mmHg 65%
    23:00 +21°C° 0 mm 2 m/s 655 mmHg 69%

    Depois de amanhã, 17 Dezembro, Segunda-feira

    Tempo Temperatura Precipitação Vento Pressão Humidade
    00:00 +20°C° 0 mm 2 m/s 654 mmHg 73%
    01:00 +21°C° 0 mm 1 m/s 654 mmHg 77%
    02:00 +19°C° 0 mm 2 m/s 654 mmHg 77%
    03:00 +19°C° 0 mm 2 m/s 654 mmHg 78%
    04:00 +19°C° 0 mm 2 m/s 653 mmHg 78%
    05:00 +20°C° 0 mm 2 m/s 654 mmHg 74%
    06:00 +21°C° 0 mm 2 m/s 654 mmHg 69%
    07:00 +22°C° 0 mm 1 m/s 655 mmHg 65%
    08:00 +26°C° 0 mm 1 m/s 656 mmHg 52%
    09:00 +30°C° 0 mm 1 m/s 657 mmHg 40%
    10:00 +34°C° 0 mm 1 m/s 658 mmHg 28%
    11:00 +35°C° 0 mm 1 m/s 657 mmHg 27%
    12:00 +35°C° 0 mm 1 m/s 656 mmHg 26%
    13:00 +35°C° 0 mm 1 m/s 655 mmHg 25%
    14:00 +34°C° 0 mm 1 m/s 654 mmHg 27%
    15:00 +34°C° 0 mm 2 m/s 654 mmHg 29%
    16:00 +32°C° 0 mm 2 m/s 653 mmHg 32%
    17:00 +30°C° 0 mm 3 m/s 653 mmHg 37%
    18:00 +28°C° 0 mm 3 m/s 653 mmHg 43%
    19:00 +27°C° 0 mm 3 m/s 653 mmHg 48%
    20:00 +26°C° 0 mm 3 m/s 654 mmHg 54%
    21:00 +25°C° 0 mm 4 m/s 654 mmHg 60%
    22:00 +23°C° 0 mm 4 m/s 655 mmHg 65%
    23:00 +22°C° 0 mm 3 m/s 654 mmHg 70%

    18 Dezembro, Terça-feira

    Tempo Temperatura Precipitação Vento Pressão Humidade
    00:00 +21°C° 0 mm 3 m/s 654 mmHg 75%
    01:00 +20°C° 0 mm 3 m/s 653 mmHg 80%
    02:00 +19°C° 0 mm 2 m/s 653 mmHg 83%
    03:00 +19°C° 0 mm 2 m/s 653 mmHg 86%
    04:00 +19°C° 0 mm 1 m/s 653 mmHg 89%
    05:00 +20°C° 0 mm 1 m/s 654 mmHg 83%
    06:00 +21°C° 0 mm 1 m/s 654 mmHg 77%
    07:00 +22°C° 0 mm 1 m/s 655 mmHg 70%
    08:00 +26°C° 0 mm 1 m/s 656 mmHg 57%
    09:00 +29°C° 0 mm 1 m/s 656 mmHg 44%
    10:00 +33°C° 0 mm 1 m/s 657 mmHg 31%
    11:00 +35°C° 0 mm 2 m/s 657 mmHg 28%
    12:00 +36°C° 0 mm 2 m/s 656 mmHg 24%
    13:00 +38°C° 0 mm 2 m/s 655 mmHg 21%
    14:00 +36°C° 0 mm 2 m/s 654 mmHg 24%
    15:00 +34°C° 0 mm 3 m/s 653 mmHg 26%
    16:00 +33°C° 0 mm 3 m/s 653 mmHg 29%
    17:00 +30°C° 0 mm 3 m/s 653 mmHg 34%
    18:00 +29°C° 0 mm 4 m/s 653 mmHg 38%
    19:00 +27°C° 0 mm 4 m/s 653 mmHg 43%
    20:00 +26°C° 0 mm 4 m/s 654 mmHg 49%
    21:00 +25°C° 0 mm 4 m/s 654 mmHg 54%
    22:00 +22°C° 0 mm 3 m/s 654 mmHg 60%
    23:00 +21°C° 0 mm 3 m/s 654 mmHg 64%

    19 Dezembro, Quarta-feira

    Tempo Temperatura Precipitação Vento Pressão Humidade
    00:00 +20°C° 0 mm 3 m/s 653 mmHg 67%
    01:00 +20°C° 0 mm 2 m/s 653 mmHg 71%
    02:00 +19°C° 0 mm 2 m/s 653 mmHg 73%
    03:00 +18°C° 0 mm 2 m/s 653 mmHg 75%
    04:00 +19°C° 0 mm 1 m/s 653 mmHg 78%
    05:00 +19°C° 0 mm 1 m/s 653 mmHg 73%
    06:00 +20°C° 0 mm 1 m/s 654 mmHg 69%
    07:00 +20°C° 0 mm 2 m/s 655 mmHg 64%
    08:00 +25°C° 0 mm 2 m/s 655 mmHg 52%
    09:00 +28°C° 0 mm 2 m/s 656 mmHg 39%
    10:00 +32°C° 0 mm 2 m/s 657 mmHg 27%
    11:00 +35°C° 0 mm 2 m/s 656 mmHg 24%
    12:00 +37°C° 0 mm 2 m/s 656 mmHg 21%
    13:00 +39°C° 0 mm 2 m/s 656 mmHg 17%
    14:00 +37°C° 0 mm 2 m/s 655 mmHg 20%
    15:00 +35°C° 0 mm 2 m/s 654 mmHg 22%
    16:00 +32°C° 0 mm 2 m/s 653 mmHg 24%
    17:00 +31°C° 0 mm 2 m/s 653 mmHg 28%
    18:00 +29°C° 0 mm 3 m/s 653 mmHg 32%
    19:00 +28°C° 0 mm 3 m/s 653 mmHg 35%
    20:00 +26°C° 0 mm 3 m/s 653 mmHg 43%
    21:00 +24°C° 0 mm 3 m/s 653 mmHg 51%
    22:00 +21°C° 0 mm 3 m/s 653 mmHg 59%
    23:00 +20°C° 0 mm 3 m/s 653 mmHg 63%

    20 Dezembro, Quinta-feira

    Tempo Temperatura Precipitação Vento Pressão Humidade
    00:00 +20°C° 0 mm 3 m/s 653 mmHg 66%
    01:00 +19°C° 0 mm 3 m/s 652 mmHg 70%
    02:00 +18°C° 0 mm 2 m/s 652 mmHg 72%
    03:00 +17°C° 0 mm 2 m/s 652 mmHg 75%
    04:00 +18°C° 0 mm 1 m/s 652 mmHg 77%
    05:00 +19°C° 0 mm 1 m/s 653 mmHg 70%
    06:00 +19°C° 0 mm 2 m/s 653 mmHg 63%
    07:00 +20°C° 0 mm 2 m/s 654 mmHg 57%
    08:00 +25°C° 0 mm 2 m/s 655 mmHg 45%
    09:00 +29°C° 0 mm 2 m/s 655 mmHg 32%
    10:00 +33°C° 0 mm 3 m/s 656 mmHg 20%
    11:00 +35°C° 0 mm 3 m/s 656 mmHg 19%
    12:00 +37°C° 0 mm 3 m/s 655 mmHg 17%
    13:00 +38°C° 0 mm 2 m/s 655 mmHg 16%
    14:00 +37°C° 0 mm 2 m/s 654 mmHg 18%
    15:00 +35°C° 0 mm 2 m/s 653 mmHg 20%
    16:00 +34°C° 0 mm 2 m/s 652 mmHg 22%
    17:00 +31°C° 0 mm 2 m/s 652 mmHg 24%
    18:00 +30°C° 0 mm 3 m/s 653 mmHg 27%
    19:00 +28°C° 0 mm 3 m/s 653 mmHg 29%
    20:00 +27°C° 0 mm 2 m/s 653 mmHg 36%
    21:00 +25°C° 0 mm 2 m/s 653 mmHg 42%
    22:00 +23°C° 0 mm 1 m/s 653 mmHg 48%
    23:00 +21°C° 0 mm 2 m/s 653 mmHg 52%
    Mostrar mais